Location: Newark
(35.2672°N, 80.7344°W)
Time: 22:24:10
(UTC+00:00)

Vanguard 2 Rocket - Pass Details

Date: 26 January 2020
Orbit: 554 x 3327 km, 32.9° (Epoch: 19 February)

Event Time Altitude Azimuth Distance (km) Brightness Sun altitude
Rises 12:53:44 0° 272° (W) 3,120 9.1 4.2°
Reaches altitude 10° 12:55:42 10° 270° (W) 2,375 8.5 4.6°
Maximum altitude 13:01:11 67° 188° (S) 1,186 7.7 5.6°
Drops below altitude 10° 13:10:48 10° 109° (ESE) 4,049 12.5 7.3°
Sets 13:15:10 0° 107° (ESE) 5,515 12.8 8.1°
